Weather History for KCKV - August, 2012

Change the Weather History Date:

Tuesday, August 7, 2012

  Actual Average Record
Temperature  
Mean Temperature 81 °F -  
Max Temperature 93 °F - 100 °F (1991)
Min Temperature 68 °F - 53 °F (2004)
Degree Days  
Heating Degree Days 0    
Month to date heating degree days 0  
Since 1 July heating degree days 0  
Cooling Degree Days 16    
Month to date cooling degree days 124  
Growing Degree Days 30 (Base 50)    
Moisture  
Dew Point 65 °F    
Average Humidity 64    
Maximum Humidity 97    
Minimum Humidity 30    
Precipitation  
Precipitation 0.00 in - 0.99 in (1976)
Month to date precipitation 0.34  
Sea Level Pressure  
Sea Level Pressure 29.98 in    
Wind  
Wind Speed 2 mph (North)    
Max Wind Speed 10 mph    
Max Gust Speed 14 mph    
Visibility 8 miles    
Events      
T = Trace of Precipitation, MM = Missing Value Source: NWS Daily Summary

Daily Weather History Graph

Daily Weather History Graph

Search for Another Location

Airport or City:

Trip Planner

Search our weather history database for the weather conditions in past years. The results will help you decide how hot, cold, wet, or windy it might be!

Date:

Astronomy

Aug. 07, 2012 Rise Set
Actual Time 6:00 AM CDT 7:49 PM CDT
Civil Twilight 5:32 AM CDT 8:17 PM CDT
Nautical Twilight 4:58 AM CDT 8:50 PM CDT
Astronomical Twilight 4:22 AM CDT 9:26 PM CDT
Moon 10:41 PM CDT (8/7) 11:36 AM CDT (8/7)
Length of Visible Light 14h 44m
Length of Day
13h 48m
Waning Gibbous, 69% of the Moon is Illuminated
Aug 7
Waning Gibbous
Aug 9
Last Quarter
Aug 17
New
Aug 24
First Quarter
Aug 31
Full

Hourly Weather History & Observations

Time (CDT) Temp. Heat Index Dew Point Humidity Pressure Visibility Wind Dir Wind Speed Gust Speed Precip Events Conditions
12:52 AM 73.9 °F - 69.1 °F 85% 29.99 in 8.0 mi Calm Calm - N/A   Clear
1:52 AM 73.0 °F - 69.1 °F 87% 29.98 in 7.0 mi Calm Calm - N/A   Clear
2:52 AM 72.0 °F - 69.1 °F 91% 29.97 in 6.0 mi Calm Calm - N/A   Clear
3:52 AM 71.1 °F - 69.1 °F 93% 29.97 in 5.0 mi Calm Calm - N/A   Clear
4:52 AM 70.0 °F - 68.0 °F 93% 29.97 in 3.0 mi Calm Calm - N/A   Clear
5:52 AM 69.1 °F - 66.9 °F 93% 29.99 in 3.0 mi Calm Calm - N/A   Clear
6:08 AM 68.0 °F - 66.2 °F 94% 30.00 in 2.0 mi Calm Calm - N/A   Clear
6:52 AM 71.1 °F - 68.0 °F 90% 29.99 in 2.5 mi Calm Calm - N/A   Clear
7:26 AM 73.4 °F - 69.8 °F 88% 30.01 in 3.0 mi Calm Calm - N/A   Clear
7:52 AM 75.0 °F - 71.1 °F 87% 30.00 in 4.0 mi ESE 4.6 mph - N/A   Clear
8:52 AM 81.0 °F 85.8 °F 73.0 °F 77% 30.01 in 5.0 mi North 3.5 mph - N/A   Haze
9:52 AM 84.0 °F 91.2 °F 73.9 °F 72% 30.01 in 8.0 mi North 3.5 mph - N/A   Clear
10:52 AM 87.1 °F 92.8 °F 71.1 °F 59% 30.01 in 10.0 mi North 4.6 mph - N/A   Partly Cloudy
11:52 AM 89.1 °F 91.0 °F 64.9 °F 45% 30.01 in 10.0 mi NW 4.6 mph - N/A   Scattered Clouds
12:52 PM 89.1 °F 89.3 °F 62.1 °F 40% 29.99 in 10.0 mi NNW 6.9 mph - N/A   Clear
1:52 PM 90.0 °F 89.7 °F 60.1 °F 37% 29.98 in 10.0 mi NNW 6.9 mph - N/A   Clear
2:52 PM 91.0 °F 90.0 °F 57.9 °F 33% 29.96 in 10.0 mi ENE 5.8 mph - N/A   Clear
3:52 PM 91.9 °F 91.2 °F 59.0 °F 33% 29.94 in 10.0 mi Calm Calm - N/A   Clear
4:52 PM 91.0 °F 89.2 °F 55.9 °F 30% 29.93 in 10.0 mi Calm Calm - N/A   Clear
5:52 PM 90.0 °F 89.1 °F 59.0 °F 35% 29.93 in 10.0 mi Variable 4.6 mph - N/A   Clear
6:52 PM 88.0 °F 88.4 °F 62.1 °F 42% 29.93 in 10.0 mi Calm Calm - N/A   Clear
7:52 PM 82.9 °F 82.8 °F 59.0 °F 44% 29.93 in 10.0 mi Calm Calm - N/A   Clear
8:52 PM 75.0 °F - 62.1 °F 64% 29.96 in 10.0 mi NNE 3.5 mph - N/A   Clear
9:52 PM 73.9 °F - 63.0 °F 68% 29.96 in 10.0 mi Calm Calm - N/A   Clear
10:52 PM 72.0 °F - 64.9 °F 78% 29.97 in 10.0 mi Calm Calm - N/A   Clear
11:52 PM 71.1 °F - 64.0 °F 78% 29.97 in 10.0 mi Calm Calm - N/A   Clear